Weather History for Robinson, IL

Change the Weather History Date:

Sunday, April 21, 2013

  Actual Average (KLWV) Record (KLWV)
Temperature  
Mean Temperature 48 °F 58 °F  
Max Temperature 61 °F 69 °F 78 °F (2001)
Min Temperature 36 °F 48 °F 37 °F (1993)
Degree Days  
Heating Degree Days 16 8  
Month to date heating degree days 238  
Since 1 July heating degree days 4535  
Cooling Degree Days 0 1  
Month to date cooling degree days 15  
Year to date cooling degree days 17  
Moisture  
Dew Point 31 °F    
Average Humidity 51    
Maximum Humidity 76    
Minimum Humidity 28    
Precipitation  
Precipitation 0.00 in 0.14 in 1.48 in (1984)
Month to date precipitation 2.49  
Year to date precipitation 10.31  
Sea Level Pressure  
Sea Level Pressure 30.41 in    
Wind  
Wind Speed 8 mph (ENE)    
Max Wind Speed 15 mph    
Max Gust Speed 24 mph    
Visibility 10 miles    
Events      
T = Trace of Precipitation, MM = Missing Value Source: NWS Daily Summary

Daily Weather History Graph

Daily Weather History Graph

Search for Another Location

Airport:

Trip Planner

Search our weather history database for the weather conditions in past years. The results will help you decide how hot, cold, wet, or windy it might be!

Date:

Astronomy

Apr. 21, 2013 Rise Set
Actual Time 6:05 AM CDT 7:33 PM CDT
Civil Twilight 5:37 AM CDT 8:02 PM CDT
Nautical Twilight 5:03 AM CDT 8:35 PM CDT
Astronomical Twilight 4:27 AM CDT 9:11 PM CDT
Moon 3:20 PM CDT (4/21) 3:24 AM CDT (4/21)
Length of Visible Light 14h 24m
Length of Day
13h 28m
Waxing Gibbous, 80% of the Moon is Illuminated
Apr 21
Waxing Gibbous
Apr 25
Full
May 2
Last Quarter
May 9
New
May 17
First Quarter

Hourly Weather History & Observations

Time (CDT) Temp. Windchill Dew Point Humidity Pressure Visibility Wind Dir Wind Speed Gust Speed Precip Events Conditions
12:15 AM 40.6 °F 35.4 °F 30.6 °F 67% 30.42 in 10.0 mi ENE 8.1 mph - N/A   Clear
12:35 AM 41.4 °F 35.7 °F 30.6 °F 65% 30.42 in 10.0 mi ENE 9.2 mph - N/A   Clear
12:55 AM 40.5 °F 34.6 °F 30.7 °F 68% 30.42 in 10.0 mi ENE 9.2 mph - N/A   Clear
1:15 AM 40.1 °F 35.3 °F 30.7 °F 69% 30.43 in 10.0 mi ENE 6.9 mph - N/A   Clear
1:35 AM 39.7 °F 34.9 °F 30.7 °F 70% 30.43 in 10.0 mi ENE 6.9 mph - N/A   Clear
4:35 AM 36.5 °F 31.8 °F 29.5 °F 76% 30.44 in 10.0 mi ENE 5.8 mph - N/A   Clear
4:55 AM 36.9 °F 31.4 °F 29.3 °F 74% 30.44 in 10.0 mi ENE 6.9 mph - N/A   Clear
5:15 AM 37.4 °F 32.1 °F 29.1 °F 72% 30.45 in 10.0 mi ENE 6.9 mph - N/A   Clear
5:35 AM 37.4 °F 32.1 °F 29.3 °F 73% 30.46 in 10.0 mi ENE 6.9 mph - N/A   Clear
5:55 AM 37.6 °F 31.6 °F 29.3 °F 72% 30.47 in 10.0 mi ENE 8.1 mph - N/A   Clear
6:15 AM 37.8 °F 31.8 °F 29.3 °F 72% 30.48 in 10.0 mi ENE 8.1 mph - N/A   Clear
6:35 AM 38.7 °F 32.9 °F 29.3 °F 69% 30.49 in 10.0 mi ENE 8.1 mph - N/A   Clear
6:55 AM 39.2 °F 33.0 °F 29.7 °F 69% 30.49 in 10.0 mi ENE 9.2 mph - N/A   Clear
7:15 AM 39.7 °F 33.7 °F 29.8 °F 68% 30.50 in 10.0 mi ENE 9.2 mph - N/A   Clear
7:35 AM 40.6 °F 35.4 °F 30.0 °F 66% 30.50 in 10.0 mi ENE 8.1 mph - N/A   Clear
7:55 AM 41.4 °F 35.7 °F 30.7 °F 66% 30.50 in 10.0 mi ENE 9.2 mph - N/A   Clear
8:15 AM 42.1 °F 37.1 °F 30.7 °F 64% 30.50 in 10.0 mi East 8.1 mph - N/A   Clear
8:35 AM 43.9 °F 37.9 °F 30.9 °F 60% 30.51 in 10.0 mi East 11.5 mph - N/A   Clear
8:55 AM 45.5 °F 40.3 °F 30.4 °F 56% 30.51 in 10.0 mi East 10.4 mph - N/A   Clear
9:15 AM 46.9 °F - 30.7 °F 53% 30.51 in 10.0 mi East 11.5 mph 17.3 mph N/A   Clear
9:35 AM 48.0 °F - 30.7 °F 51% 30.50 in 10.0 mi East 12.7 mph 18.4 mph N/A   Clear
9:55 AM 49.5 °F - 31.3 °F 50% 30.50 in 10.0 mi East 15.0 mph - N/A   Clear
10:15 AM 50.5 °F - 31.5 °F 48% 30.50 in 10.0 mi East 13.8 mph 18.4 mph N/A   Clear
10:35 AM 51.1 °F - 31.6 °F 47% 30.50 in 10.0 mi East 12.7 mph 24.2 mph N/A   Clear
10:55 AM 52.0 °F - 32.0 °F 47% 30.50 in 10.0 mi East 11.5 mph - N/A   Clear
11:15 AM 52.5 °F - 31.8 °F 45% 30.49 in 10.0 mi East 13.8 mph - N/A   Clear
11:35 AM 53.6 °F - 31.8 °F 44% 30.48 in 10.0 mi East 11.5 mph - N/A   Clear
11:55 AM 54.5 °F - 32.5 °F 43% 30.47 in 10.0 mi East 11.5 mph - N/A   Clear
12:15 PM 54.1 °F - 31.5 °F 42% 30.46 in 10.0 mi East 9.2 mph - N/A   Clear
12:35 PM 54.9 °F - 31.1 °F 40% 30.45 in 10.0 mi East 9.2 mph - N/A   Clear
12:55 PM 55.6 °F - 31.6 °F 40% 30.44 in 10.0 mi East 5.8 mph - N/A   Clear
1:15 PM 56.3 °F - 31.1 °F 38% 30.43 in 10.0 mi East 8.1 mph - N/A   Clear
1:35 PM 57.0 °F - 31.6 °F 38% 30.42 in 10.0 mi East 8.1 mph - N/A   Clear
1:55 PM 57.2 °F - 29.8 °F 35% 30.42 in 10.0 mi East 6.9 mph - N/A   Clear
2:15 PM 58.5 °F - 30.7 °F 35% 30.41 in 10.0 mi ESE 6.9 mph - N/A   Clear
2:35 PM 59.0 °F - 31.1 °F 35% 30.40 in 10.0 mi NNE 5.8 mph - N/A   Clear
2:55 PM 58.6 °F - 29.3 °F 33% 30.39 in 10.0 mi ESE 10.4 mph - N/A   Clear
3:15 PM 59.7 °F - 28.4 °F 30% 30.38 in 10.0 mi ENE 9.2 mph - N/A   Clear
3:35 PM 60.1 °F - 27.5 °F 29% 30.37 in 10.0 mi Calm Calm - N/A   Clear
3:55 PM 60.6 °F - 30.0 °F 31% 30.36 in 10.0 mi ENE 5.8 mph - N/A   Clear
4:15 PM 61.0 °F - 27.9 °F 28% 30.36 in 10.0 mi NE 9.2 mph - N/A   Clear
4:35 PM 60.6 °F - 29.1 °F 30% 30.35 in 10.0 mi East 8.1 mph - N/A   Clear
4:55 PM 60.8 °F - 27.0 °F 28% 30.34 in 10.0 mi East 8.1 mph - N/A   Clear
5:15 PM 61.0 °F - 28.6 °F 29% 30.34 in 10.0 mi NE 8.1 mph - N/A   Clear
5:35 PM 60.8 °F - 29.7 °F 31% 30.34 in 10.0 mi ENE 6.9 mph - N/A   Clear
5:55 PM 61.0 °F - 27.9 °F 28% 30.34 in 10.0 mi East 5.8 mph - N/A   Clear
6:15 PM 60.4 °F - 27.5 °F 29% 30.34 in 10.0 mi ENE 8.1 mph - N/A   Clear
6:35 PM 59.5 °F - 30.9 °F 34% 30.34 in 10.0 mi East 5.8 mph - N/A   Clear
6:55 PM 58.3 °F - 31.8 °F 37% 30.34 in 10.0 mi ENE 6.9 mph - N/A   Clear
7:15 PM 56.5 °F - 32.2 °F 40% 30.34 in 10.0 mi ENE 4.6 mph - N/A   Clear
7:35 PM 55.2 °F - 32.5 °F 42% 30.34 in 10.0 mi ENE 4.6 mph - N/A   Clear
7:55 PM 54.0 °F - 32.7 °F 45% 30.34 in 10.0 mi East 3.5 mph - N/A   Clear
8:15 PM 53.6 °F - 32.2 °F 44% 30.35 in 10.0 mi East 4.6 mph - N/A   Clear
8:35 PM 50.5 °F - 34.5 °F 54% 30.35 in 10.0 mi Calm Calm - N/A   Clear
8:55 PM 49.1 °F - 34.9 °F 58% 30.35 in 10.0 mi East 3.5 mph - N/A   Clear
9:15 PM 48.0 °F - 33.6 °F 57% 30.36 in 10.0 mi ENE 5.8 mph - N/A   Clear
9:35 PM 48.2 °F - 34.7 °F 60% 30.35 in 10.0 mi East 3.5 mph - N/A   Clear
9:55 PM 48.2 °F - 34.5 °F 59% 30.35 in 10.0 mi East 5.8 mph - N/A   Clear
10:15 PM 48.9 °F - 33.4 °F 55% 30.35 in 10.0 mi East 5.8 mph - N/A   Clear
10:35 PM 47.8 °F - 34.9 °F 61% 30.35 in 10.0 mi East 3.5 mph - N/A   Clear
10:55 PM 47.3 °F - 35.6 °F 64% 30.34 in 10.0 mi ENE 4.6 mph - N/A   Clear
11:15 PM 46.2 °F 43.3 °F 33.8 °F 62% 30.34 in 10.0 mi ENE 5.8 mph - N/A   Clear
11:35 PM 44.1 °F 40.8 °F 34.7 °F 70% 30.34 in 10.0 mi ENE 5.8 mph - N/A   Clear
11:55 PM 45.0 °F 43.5 °F 34.9 °F 68% 30.34 in 10.0 mi East 3.5 mph - N/A   Clear